TimeEDT,TemperatureF,Dew PointF,Humidity,Sea Level PressureIn,VisibilityMPH,Wind Direction,Wind SpeedMPH,Gust SpeedMPH,PrecipitationIn,Events,Conditions,WindDirDegrees,DateUTC
12:53 AM,55.9,48.9,77,29.76,10.0,SW,4.6,-,N/A,,Overcast,230,2012-10-19 04:53:00
1:53 AM,55.0,46.0,72,29.76,10.0,SW,6.9,-,N/A,,Overcast,220,2012-10-19 05:53:00
2:53 AM,53.1,44.1,71,29.75,10.0,Calm,Calm,-,N/A,,Mostly Cloudy,0,2012-10-19 06:53:00
3:53 AM,48.0,43.0,83,29.75,10.0,Calm,Calm,-,N/A,,Partly Cloudy,0,2012-10-19 07:53:00
4:53 AM,46.0,41.0,83,29.73,10.0,Calm,Calm,-,N/A,,Clear,0,2012-10-19 08:53:00
5:53 AM,43.0,39.9,89,29.73,10.0,Calm,Calm,-,N/A,,Clear,0,2012-10-19 09:53:00
6:53 AM,41.0,37.9,89,29.74,10.0,Calm,Calm,-,N/A,,Clear,0,2012-10-19 10:53:00
7:53 AM,39.9,37.9,93,29.75,10.0,Calm,Calm,-,N/A,,Clear,0,2012-10-19 11:53:00
8:53 AM,48.0,42.1,80,29.75,10.0,Calm,Calm,-,N/A,,Clear,0,2012-10-19 12:53:00
9:53 AM,53.1,43.0,69,29.75,10.0,Calm,Calm,-,N/A,,Clear,0,2012-10-19 13:53:00
10:53 AM,60.1,37.9,44,29.74,10.0,SSW,4.6,-,N/A,,Clear,200,2012-10-19 14:53:00
11:53 AM,63.0,30.0,29,29.72,10.0,SSW,15.0,20.7,N/A,,Partly Cloudy,210,2012-10-19 15:53:00
12:53 PM,64.9,25.0,22,29.70,10.0,SW,18.4,24.2,N/A,,Partly Cloudy,220,2012-10-19 16:53:00
1:53 PM,66.0,28.0,24,29.67,10.0,WSW,19.6,31.1,N/A,,Partly Cloudy,250,2012-10-19 17:53:00
2:53 PM,66.9,28.9,24,29.65,10.0,WSW,15.0,27.6,N/A,,Partly Cloudy,250,2012-10-19 18:53:00
3:53 PM,66.0,28.9,25,29.65,10.0,WSW,15.0,-,N/A,,Partly Cloudy,250,2012-10-19 19:53:00
4:53 PM,66.0,30.9,27,29.65,10.0,WSW,15.0,19.6,N/A,,Partly Cloudy,250,2012-10-19 20:53:00
5:53 PM,63.0,30.9,30,29.66,10.0,WSW,12.7,19.6,N/A,,Scattered Clouds,250,2012-10-19 21:53:00
6:53 PM,61.0,32.0,34,29.69,10.0,West,10.4,-,N/A,,Mostly Cloudy,260,2012-10-19 22:53:00
7:53 PM,59.0,36.0,42,29.71,10.0,SW,6.9,-,N/A,,Mostly Cloudy,220,2012-10-19 23:53:00
8:53 PM,57.9,37.9,47,29.73,10.0,SSW,3.5,-,N/A,,Mostly Cloudy,210,2012-10-20 00:53:00
9:53 PM,57.0,37.9,49,29.73,10.0,WSW,3.5,-,N/A,,Overcast,240,2012-10-20 01:53:00
10:53 PM,57.9,37.0,46,29.73,10.0,WSW,5.8,-,N/A,,Overcast,240,2012-10-20 02:53:00
11:53 PM,57.0,37.9,49,29.73,10.0,West,4.6,-,N/A,,Overcast,270,2012-10-20 03:53:00